Dauntless Aviation
Greetings, Guest! To participate, [sign up for a free account] or [log in]
Airports Europe France
LFIY

Saint Jean d'Angely

FRANCE

Airport Info
Edit

Location

Latitude / Longitude: 45°57'59"N / 0°31'31"W
  45°57.984'N / 0°31.518'W
  45.9664 / -0.5253

Runway Information

Runway 10 /28

Dimensions: 2789 x 164 ft.
Surface: U
 
Runway 10
Runway 28
Latitude: 45.966636 45.965728
Longitude: -0.528086 -0.518369
Elevation: 243 ft. 243 ft.
Runway true heading: 95.7 275.7
 

Instrument Procedures

IAPs (Instrument Approach Procedures)

  Visual Approch Chart
Satellite photo at:
Airport distance calculator
From:
Weather Reports

METAR

LFBG
20.0nm SE
LFBG 012330Z AUTO 24003KT 9999 NSC 06/04 Q1031
LFBH
27.2nm W
LFBH 012330Z AUTO 28008KT 9999 SCT023 08/06 Q1031
LFBU
34.5nm E
LFBU 012330Z AUTO 25005KT 9999 NSC 06/03 Q1031

TAF

LFBG
20.0nm SE
TAF LFBG 012300Z 0200/0224 VRB02KT CAVOK TEMPO 0204/0207 4000 MIFG BECMG 0206/0208 27010KT BKN014
LFBH
27.2nm W
TAF LFBH 012300Z 0200/0224 27010KT CAVOK BECMG 0203/0206 BKN015 BECMG 0217/0220 BKN005
LFBU
34.5nm E
TAF LFBU 011700Z 0118/0218 30012KT CAVOK BECMG 0120/0122 23005KT TEMPO 0202/0206 0800 BCFG TEMPO 0206/0210 BKN010 BECMG 0210/0212 29010KT BKN020
Safelog

 

Dauntless Aviation

© 2007-2015 Dauntless Aviation, all rights reserved
Information provided via PilotNav comes from a variety of official and unofficial data sources. As errors are possible, do not use PilotNav for primary flight planning purposes. Verify any information that you receive via PilotNav with current and canonical charts and other official documents. The material in this database is subject to database copyrights held by Dauntless Aviation and may not be copied without the express permission of Dauntless Aviation - licenses for use of part of all of this data are available for purchase; enquire via the Dauntless Aviation helpdesk. A number of mechanisms and markers exist in the database to protect against and identify infringement / copyright. Automated queries against this website are stictly prohibited, and all activity is logged and analyzed.